Terminal Aerodrome Forecast
Issued by NWS

Home | Current Version | Previous Version | Text Only | Print | Product List | Glossary On
Versions: 1 2 3 4 5 6 7 8 9 10 11 12 13 14 15 16 17 18 19 20 21 22 23 24 25 26 27 28 29 30
000
FTUS42 TJSJ 191328 AAA
TAFKPK
TAF AMD
TKPK 191328Z 1913/2012 07012KT P6SM VCSH FEW012 SCT017
      TEMPO 1913/1914 FEW012 BKN016
     FM192300 08009KT P6SM FEW022
      AMD NOT SKED 2002/2011=

USA.gov is the U.S. government's official web portal to all federal, state and local government web resources and services.